TimeHST,TemperatureF,Dew PointF,Humidity,Sea Level PressureIn,VisibilityMPH,Wind Direction,Wind SpeedMPH,Gust SpeedMPH,PrecipitationIn,Events,Conditions,WindDirDegrees,DateUTC
12:57 AM,75.6,66.0,72,29.98,10.0,East,8.1,19.6,N/A,,Scattered Clouds,80,2013-07-14 10:57:00
1:57 AM,75.6,66.9,74,29.96,10.0,East,9.2,19.6,N/A,,Scattered Clouds,80,2013-07-14 11:57:00
2:57 AM,75.2,64.9,70,29.95,10.0,East,6.9,16.1,N/A,,Scattered Clouds,100,2013-07-14 12:57:00
3:57 AM,74.3,64.9,72,29.95,10.0,East,8.1,-,N/A,,Clear,100,2013-07-14 13:57:00
4:57 AM,73.9,64.9,73,29.95,10.0,Variable,3.5,-,N/A,,Scattered Clouds,0,2013-07-14 14:57:00
5:57 AM,73.6,66.0,77,29.96,10.0,Variable,5.8,-,N/A,,Scattered Clouds,0,2013-07-14 15:57:00
6:49 AM,75.2,66.2,73,29.98,6.2,Variable,3.5,-,N/A,,Mostly Cloudy,0,2013-07-14 16:49:00
6:57 AM,74.3,66.0,75,29.97,10.0,East,6.9,-,N/A,,Scattered Clouds,90,2013-07-14 16:57:00
7:57 AM,78.4,64.9,63,29.98,10.0,East,8.1,-,N/A,,Scattered Clouds,100,2013-07-14 17:57:00
8:57 AM,78.8,66.0,65,29.99,10.0,East,8.1,-,N/A,,Scattered Clouds,90,2013-07-14 18:57:00
9:57 AM,82.4,66.0,57,29.99,10.0,East,9.2,-,N/A,,Partly Cloudy,90,2013-07-14 19:57:00
10:57 AM,82.4,66.0,57,29.99,10.0,ENE,8.1,-,N/A,,Mostly Cloudy,60,2013-07-14 20:57:00
11:04 AM,82.4,66.2,58,30.00,6.2,ENE,9.2,-,N/A,,Scattered Clouds,60,2013-07-14 21:04:00
11:57 AM,84.2,66.0,54,29.98,10.0,ENE,9.2,-,N/A,,Scattered Clouds,60,2013-07-14 21:57:00
12:04 PM,-9999,-9999,N/A,29.99,6.2,ENE,11.5,16.1,N/A,,Mostly Cloudy,60,2013-07-14 22:04:00
12:11 PM,84.2,66.2,55,29.99,6.2,ENE,9.2,16.1,N/A,,Scattered Clouds,60,2013-07-14 22:11:00
12:57 PM,84.2,66.9,56,29.97,10.0,ENE,5.8,-,N/A,,Scattered Clouds,60,2013-07-14 22:57:00
1:57 PM,84.2,66.0,54,29.96,10.0,East,12.7,-,N/A,,Scattered Clouds,90,2013-07-14 23:57:00
2:57 PM,84.2,66.0,54,29.95,10.0,ENE,10.4,-,N/A,,Scattered Clouds,60,2013-07-15 00:57:00
3:57 PM,84.2,64.0,51,29.94,10.0,ENE,8.1,-,N/A,,Scattered Clouds,60,2013-07-15 01:57:00
4:57 PM,84.2,66.0,54,29.94,10.0,ENE,8.1,-,N/A,,Scattered Clouds,60,2013-07-15 02:57:00
5:57 PM,84.2,66.0,54,29.94,10.0,East,8.1,-,N/A,,Scattered Clouds,90,2013-07-15 03:57:00
6:57 PM,84.2,66.0,54,29.96,10.0,Variable,4.6,-,N/A,,Scattered Clouds,0,2013-07-15 04:57:00
7:57 PM,78.8,64.9,62,29.97,10.0,East,8.1,-,N/A,,Scattered Clouds,80,2013-07-15 05:57:00
8:57 PM,78.8,64.9,62,29.99,7.0,East,8.1,-,N/A,,Scattered Clouds,80,2013-07-15 06:57:00
9:57 PM,77.0,64.9,66,30.00,10.0,East,6.9,-,N/A,,Scattered Clouds,90,2013-07-15 07:57:00
10:57 PM,77.0,66.9,71,30.00,10.0,East,9.2,-,N/A,,Mostly Cloudy,80,2013-07-15 08:57:00
11:57 PM,77.0,66.0,69,30.00,10.0,East,4.6,-,N/A,,Scattered Clouds,100,2013-07-15 09:57:00